Home   Weather   Khon Kaen   Past weeks
Flag for Thailand

Past Weather in Khon Kaen, Thailand — Yesterday and Last 2 Weeks

Now
82 °F

Passing clouds.


Feels Like: 83 °F
Forecast: 91 / 68 °F
Wind: 1 mph from North

Location: Khon Kaen Airport

Current Time: Jan 19, 2019 at 7:25:51 pm

Latest Report: Jan 19, 2019 at 6:00 pm


Visibility: 6 mi

Pressure: 29.89 "Hg

Humidity: 51%

Dew Point: 63 °F

Location of Khon KaenLocation

Past Weather in Khon Kaen — Graph

°F

Khon Kaen Temperature Yesterday

Maximum temperature yesterday: 88 °F (at 3:00 pm)
Minimum temperature yesterday: 64 °F (at 5:00 am)
Average temperature yesterday: 75 °F

High & Low Weather Summary for the Past Weeks

 TemperatureHumidityPressure
High95 °F (Jan 11, 3:00 pm)88% (Jan 6, 7:00 am)30.09 "Hg (Jan 6, 7:00 am)
Low64 °F (Jan 17, 7:00 am)34% (Jan 12, 4:00 pm)29.83 "Hg (Jan 14, 2:00 pm)
Average79 °F61%29.95 "Hg
* Reported Jan 4 6:00 pm — Jan 19 6:00 pm, Khon Kaen. Weather by CustomWeather, © 2019

Note: Actual official high and low records may vary slightly from our data, if they occured in-between our weather recording intervals... More about our weather records

Advertising

Khon Kaen Weather History for the Previous 24 Hours

Scroll right to see more
 ConditionsComfort  
Time TempWeatherWind HumidityBarometerVisibility
6:00 pm
Sat, Jan 19
82 °FPassing clouds.1 mph51%29.89 "Hg6 mi
5:00 pm86 °FPartly sunny.2 mph46%29.86 "HgN/A
4:00 pm91 °FScattered clouds.3 mph36%29.86 "HgN/A
3:00 pm90 °FScattered clouds.3 mph41%29.86 "HgN/A
2:00 pm88 °FSunny.5 mph40%29.89 "Hg10 mi
1:00 pm86 °FSunny.6 mph43%29.92 "Hg10 mi
12:00 pm82 °FScattered clouds.6 mph51%29.98 "HgN/A
11:00 am77 °FScattered clouds.5 mph57%30.01 "Hg6 mi
10:00 am77 °FScattered clouds.6 mph57%30.04 "Hg6 mi
9:00 am77 °FScattered clouds.6 mph57%30.04 "Hg5 mi
8:00 am70 °FScattered clouds.6 mph73%30.01 "Hg4 mi
7:00 am66 °FBroken clouds.3 mph83%29.98 "Hg4 mi
6:00 am68 °FPassing clouds.5 mph78%29.98 "Hg5 mi
5:00 am68 °FClear.5 mph78%29.95 "Hg5 mi
4:00 am68 °FClear.6 mph78%29.95 "Hg5 mi
3:00 am70 °FClear.6 mph73%29.95 "Hg5 mi
2:00 am70 °FClear.3 mph73%29.95 "Hg5 mi
1:00 am72 °FClear.3 mph69%29.98 "Hg5 mi
12:00 am73 °FPassing clouds.6 mph65%29.98 "Hg5 mi
11:00 pm
Fri, Jan 18
77 °FPassing clouds.7 mph57%29.98 "Hg5 mi
10:00 pm77 °FPassing clouds.6 mph57%29.98 "Hg5 mi
9:00 pm75 °FPassing clouds.No wind61%29.98 "Hg6 mi
8:00 pm73 °FPassing clouds.2 mph65%29.98 "HgN/A
7:00 pm77 °FPassing clouds.3 mph54%29.95 "HgN/A
Weather by CustomWeather, © 2019

See weather overview